Location: Namasale
(1.5000°N, 32.6167°E)
Time: 08:48:52
(UTC+00:00)

Transit 4A - Visible Passes

Search period start: 19 April 2021 00:00
Search period end: 29 April 2021 00:00
Orbit: 869 x 975 km, 66.8° (Epoch: 18 April)

Date Brightness Start Highest point End Pass type
(mag) Time Alt. Az. Time Alt. Az. Time Alt. Az.
27 Apr 9.8 17:09:38 10° SSE 17:10:39 14° SSE 17:10:39 14° SSE visible
28 Apr 8.2 17:18:08 10° S 17:32:10 - NNE 17:23:42 45° ESE visible
28 Apr 10.6 19:06:42 10° WSW 19:15:13 - NNW 19:07:41 12° W visible
